Vertical_Velocity
-1 -1 -1 -1 -0 -0 -0 -0 -0 -0 0 1 1 1 1 1 1 1 2 2 2 2 3 3 3 3 2 2 2 2 1 1 1 1 1 0 -0 -1 -2 -2 -2 -2 -2 -2 -2 -1 -1 -1 -0 0 0 0 0 0 0 0 0 0 0 1 1 1 1 2 4 3 2 1 1
-0 -0 -1 -0 -0 -0 -0 -0 0 1 1 1 1 1 1 1 1 2 2 2 2 2 3 3 2 2 2 1 1 1 1 0 0 0 -0 -0 -1 -2 -2 -2 -1 -1 -1 -1 -1 -1 -1 -0 0 1 1 1 0 0 0 0 1 1 1 2 2 2 2 2 5 4 3 1 2
-0 -0 -0 -0 -0 0 0 1 1 1 2 2 1 1 2 2 2 2 2 3 3 3 3 2 2 1 1 0 0 -0 -0 -1 -1 -1 -1 -1 -1 -1 -1 -1 -0 -0 -0 -0 -1 -1 -1 -1 -0 0 1 1 0 0 -0 -0 0 1 1 1 2 2 2 1 1 1 1 1 2
-0 -0 -0 0 1 1 1 1 1 1 1 1 1 1 2 2 2 2 3 3 3 3 2 2 1 0 -0 -0 -1 -1 -2 -2 -2 -1 -1 -1 -0 -0 -0 -0 -0 -0 -0 -0 -1 -1 -1 -1 -1 -1 -0 0 0 -0 -0 -1 -1 -1 -1 -0 0 1 0 -0 -0 -0 -0 0 1
-0 0 0 1 1 1 0 0 0 0 0 0 1 2 2 2 2 3 3 3 3 3 2 1 0 -0 -1 -1 -2 -2 -2 -2 -1 -1 -0 -0 -0 -0 -0 -0 -0 -0 -0 -0 -1 -2 -2 -3 -2 -1 -1 -1 -1 -1 -1 -2 -3 -3 -3 -2 -2 -1 -1 -2 -2 -2 -2 -1 -1
0 0 1 1 0 0 -0 -0 -0 -0 0 1 1 2 2 2 2 3 3 3 2 1 0 -0 -0 -1 -1 -2 -2 -2 -2 -1 -0 0 0 0 -0 -1 -1 -1 -1 -1 -1 -1 -2 -3 -3 -2 -1 -1 -1 -3 -2 -1 -1 -2 -3 -4 -4 -4 -3 -3 -3 -3 -3 -3 -2 -1 -1
-0 -0 -0 -0 -0 -0 -0 -0 -0 0 0 1 2 2 2 2 2 2 2 1 1 0 -0 -1 -1 -1 -1 -1 -1 -1 -0 0 1 1 1 0 -0 -1 -1 -1 -2 -2 -2 -2 -4 -4 -3 -0 2 0 -2 -4 -3 -1 0 0 -0 -1 -3 -3 -4 -3 -2 -1 -1 -2 -2 -1 -1
-1 -1 -1 -1 -0 -0 -0 -0 0 1 1 2 2 2 2 2 2 1 1 0 -0 -1 -1 -1 -1 -1 -1 -0 -0 1 1 2 2 1 1 -0 -0 -0 -1 -1 -2 -2 -2 -3 -4 -4 -3 -1 -0 -1 -2 -2 -2 -2 -1 -0 1 1 0 -0 -2 1 9 17 10 2 -2 -1 -0
-0 -0 -0 -0 -0 0 0 -0 0 1 1 2 2 1 1 1 1 1 0 -0 -2 -2 -2 -1 -1 -1 0 1 1 1 1 1 1 1 -0 -1 -0 -0 -0 -1 -1 -2 -2 -3 -2 -0 -0 -3 -3 -3 -2 -1 -1 -1 -0 0 3 4 5 5 4 12 24 34 19 6 -1 -1 -0
-0 0 0 0 0 0 0 0 1 1 1 2 1 1 1 1 0 -0 -1 -2 -2 -2 -1 -1 -0 0 1 1 1 1 1 1 0 0 -0 -1 -1 -1 -1 -1 -1 -2 -3 -4 -1 2 3 -1 -2 -3 -2 -0 2 2 1 1 4 7 7 6 5 7 9 10 5 1 -0 0 -0
-0 -0 0 0 0 -0 0 0 1 1 2 2 1 1 0 0 -0 -1 -1 -2 -1 -0 -1 -1 0 1 1 1 0 0 0 0 -0 -0 -1 -2 -2 -2 -2 -1 -1 -2 -3 -4 -3 0 2 1 -1 -2 -2 0 4 5 3 1 3 5 6 3 1 1 2 5 3 1 -0 1 0
-0 -0 -0 -0 -0 -0 -0 0 1 1 1 1 0 -0 -0 -0 -1 -1 -1 -0 0 -0 -0 -0 1 1 1 1 0 0 0 -0 -0 -1 -1 -2 -2 -2 -2 -2 -2 -2 -2 -3 -3 -1 1 1 -0 -1 -1 -1 1 3 4 2 3 4 4 1 -0 1 6 14 10 4 0 1 0
-0 -0 -0 -0 -0 -0 0 0 0 0 0 -0 -1 -1 -1 -1 -1 -0 0 1 1 0 -0 0 1 1 1 1 0 0 -0 -0 -0 -0 -1 -2 -2 -2 -2 -2 -2 -2 -2 -2 -2 -1 -0 -0 -0 -0 -0 -2 -2 -0 2 2 2 2 1 1 0 2 5 12 9 4 0 0 -0
-0 -0 0 0 0 0 0 0 0 -0 -1 -1 -2 -1 -1 -0 -0 0 1 1 0 0 0 0 1 1 1 0 0 -0 -0 -0 -0 -0 -1 -1 -2 -2 -2 -2 -2 -2 -1 -2 -1 -0 -0 -1 -1 -1 -1 -1 -2 -1 -1 -1 -2 -2 -1 0 1 1 3 8 7 3 -0 -1 -0
-0 0 0 0 0 0 0 0 -0 -1 -1 -1 -2 -1 -1 -0 -0 0 1 1 -0 -0 0 1 1 0 0 0 0 -0 -0 -0 -0 -1 -1 -2 -3 -3 -3 -3 -3 -2 -2 -2 -1 -0 0 -0 -1 -2 -2 -2 -2 -2 -3 -4 -4 -4 -3 -0 2 2 3 4 3 1 -1 -1 -0
-0 0 0 0 0 0 0 0 -0 -1 -1 -1 -1 -1 -0 -1 -1 -0 -0 -0 -1 -0 0 1 0 0 0 0 0 -0 -0 -1 -1 -1 -2 -2 -3 -3 -4 -3 -3 -3 -2 -2 -2 -1 -1 -1 -1 -1 -2 -2 -3 -3 -3 -4 -4 -3 -2 -0 2 3 2 0 -1 -1 -1 -1 -0
-0 -0 -0 -0 -0 -0 -0 -0 -1 -1 -1 -1 -1 -1 -1 -1 -1 -1 -0 -1 -0 0 1 0 0 0 0 -0 -0 -0 -1 -1 -2 -2 -3 -3 -3 -3 -3 -3 -3 -3 -3 -2 -2 -2 -3 -2 -2 -2 -2 -3 -3 -3 -3 -3 -2 -1 -0 0 1 0 -0 -2 -2 -1 -1 -0 -0
-0 -0 -0 -0 -0 -0 -0 -1 -1 -1 -1 -1 -1 -1 -1 -1 -1 -1 -1 -0 0 1 1 1 0 1 0 -0 -1 -1 -1 -1 -2 -3 -3 -3 -3 -2 -2 -3 -3 -3 -3 -2 -2 -3 -3 -2 -2 -2 -3 -3 -3 -3 -2 -2 -0 2 3 2 -0 -1 -2 -2 -1 -0 0 0 -0
0 0 0 1 1 1 0 -0 -0 -1 -1 -1 -1 -1 -1 -1 -0 -0 -0 0 1 1 2 1 0 0 0 -0 -1 -1 -1 -1 -2 -2 -3 -3 -2 -2 -2 -2 -3 -3 -3 -2 -2 -2 -2 -2 -1 -2 -3 -4 -3 -3 -2 -2 0 2 3 0 -1 -1 -1 -1 -0 -0 0 -0 -0
1 2 2 2 2 2 1 0 0 -0 -1 -1 -1 -1 -0 -0 -0 1 1 1 1 1 2 1 1 0 0 0 -0 -1 -1 -2 -1 -1 -2 -2 -2 -2 -2 -3 -3 -3 -2 -2 -2 -2 -2 -2 -0 -0 -2 -4 -3 -3 -3 -3 -3 -2 -2 -2 -1 -0 -0 -1 -1 -1 -1 -1 -1
3 3 3 4 4 3 2 1 1 -0 -1 -1 -1 -0 -0 0 1 2 2 2 1 2 2 2 2 1 1 1 0 -1 -2 -2 -0 -0 -1 -1 -1 -2 -2 -2 -2 -2 -1 -2 -1 -2 -2 -3 -2 -2 -3 -4 -3 -3 -3 -3 -3 -3 -3 -2 -1 -1 -1 -1 -2 -2 -2 -2 -1
3 3 4 4 3 3 3 2 1 -0 -1 -1 -0 0 1 1 2 3 3 3 3 3 3 3 2 2 2 1 -0 -1 -2 -2 -0 -0 -0 -1 -1 -2 -2 -2 -0 1 2 0 0 -0 -2 -3 -3 -3 -3 -3 -3 -3 -2 -0 -0 -1 -2 -2 -2 -2 -2 -1 -2 -1 -1 -1 -1
2 2 2 2 3 2 2 1 0 -0 -1 -1 0 1 2 3 3 3 4 4 4 4 4 4 3 1 0 -1 -2 -2 -2 -1 -1 -1 -1 -1 -1 -2 -2 -2 -2 -1 -0 1 4 4 2 -2 -3 -4 -3 -2 -2 -2 -0 2 2 1 -0 -1 -1 -1 -1 -1 -1 -0 -0 -0 -0
1 1 1 1 1 1 0 -0 -1 -1 -1 0 1 2 3 3 3 3 4 4 4 5 5 4 1 -1 -2 -3 -3 -2 -1 -1 -2 -1 0 3 1 -1 -3 -4 -4 -4 -4 -4 0 4 5 4 1 -1 -2 -1 -0 0 1 2 1 1 0 -0 -0 -0 -0 0 1 1 1 0 -0
-0 -1 -1 -0 -0 -1 -1 -2 -1 -1 -0 1 2 2 2 2 3 3 3 4 4 4 3 2 -1 -3 -4 -4 -3 -2 -1 -1 -3 -2 1 5 3 -0 -4 -6 -6 -6 -6 -6 -4 -2 0 3 4 4 4 4 3 1 1 1 1 1 0 0 0 0 0 1 0 0 0 -0 -0
-1 -2 -2 -2 -2 -2 -2 -2 -1 -0 0 1 1 2 2 2 2 2 3 4 4 3 1 -1 -3 -4 -4 -4 -2 -2 -2 -2 -4 -5 -3 0 1 -0 -3 -6 -6 -6 -5 -5 -4 -3 -2 -1 2 6 7 6 3 1 0 0 0 0 0 0 0 0 0 -0 -0 -0 -1 -1 -0
-2 -2 -2 -2 -2 -1 -1 -0 0 0 0 0 -0 2 4 7 7 6 6 7 6 3 0 -2 -3 -3 -3 -3 -2 -2 -3 -5 -6 -6 -4 1 3 3 1 -2 -2 -2 -3 -3 -2 -2 -1 -1 2 4 4 2 1 1 0 -0 -0 -0 0 0 1 1 1 1 0 0 -0 -1 -1
-2 -2 -2 -1 -1 -0 1 2 1 1 1 -0 -2 3 13 22 22 15 6 1 1 -0 -1 -2 -2 -2 -2 -2 -3 -4 -5 -7 -9 -6 0 10 22 30 28 13 6 3 2 -2 -2 -2 -1 1 4 4 2 1 0 -0 -0 -0 -0 -0 0 1 2 2 2 1 1 1 0 -0 -1
-2 -2 -2 -2 -1 0 1 2 1 1 0 -1 -4 1 12 25 27 22 11 -2 -5 -4 -3 -1 -2 -2 -3 -4 -5 -6 -7 -9 -10 -3 11 33 69 87 79 39 15 6 4 -2 -2 -1 1 5 6 4 1 0 -0 -1 -1 -1 -0 1 1 2 2 2 1 1 0 0 0 -0 -1
-1 -2 -2 -3 -2 -1 -1 -1 -1 -1 -3 -5 -4 3 12 19 22 22 15 -1 -6 -5 -2 -0 -2 -3 -4 -6 -6 -6 -6 -7 -7 -2 6 14 16 22 28 26 15 7 1 -2 -0 2 6 9 6 3 1 -0 -0 -1 -0 0 1 2 2 2 1 1 0 -0 -0 -0 -1 -1 -0
2 -0 -2 -3 -2 -2 -2 -2 -2 -3 -5 -7 -3 4 10 12 13 13 11 8 7 8 10 13 10 4 -1 -5 -4 -4 -4 -4 -4 -2 1 2 -0 1 5 10 6 2 -1 -1 2 6 8 7 3 0 -0 -0 -0 0 1 2 2 3 2 1 0 -0 -1 -1 -1 -1 -1 -1 -0
7 1 -0 -1 -1 -1 -2 -2 -2 -3 -4 -6 -6 -3 2 5 5 8 12 18 23 26 28 29 20 10 2 -0 -1 -2 -3 -3 -4 -2 2 9 12 12 10 8 2 -0 -1 1 5 7 7 3 1 0 -0 -0 0 1 2 3 3 2 1 0 -0 -1 -2 -2 -1 -1 -0 0 0
3 1 1 1 0 0 -0 -0 -0 -1 -2 -4 -6 -6 -4 -2 -0 5 11 18 37 57 75 90 70 39 13 6 0 -2 -4 -4 -3 -0 4 10 13 13 12 7 1 -1 0 3 6 6 4 1 1 1 0 0 1 2 2 2 1 0 -0 -1 -1 -1 -1 -1 -1 -0 0 0 1
0 0 1 1 0 0 0 0 1 1 1 -0 -3 -2 1 2 9 18 24 27 42 72 109 148 114 62 19 11 2 -2 -3 -3 -1 4 9 12 11 12 11 7 1 -1 0 3 4 2 1 -0 0 0 0 0 1 2 2 1 0 -0 -0 -1 -1 -1 -1 -1 -0 0 0 0 0
0 0 -0 -1 -1 -1 -1 -1 -0 4 8 12 6 2 2 11 25 37 44 48 63 95 128 145 89 38 6 1 -0 -1 -1 -1 3 8 13 15 13 12 11 7 2 0 1 3 2 0 -1 -1 -0 -0 0 1 1 1 1 0 -0 -0 -0 -0 -1 -1 -1 -1 -1 -0 -0 -0 -1
1 1 0 -0 -1 -1 -2 -3 -3 5 16 28 18 5 0 15 33 56 79 100 106 112 106 78 30 6 -1 0 -1 -1 1 5 9 11 11 10 11 11 9 6 3 1 2 2 1 0 -0 -0 -0 0 0 1 1 0 0 0 0 0 0 0 -0 -1 -1 -1 -1 -2 -2 -2 -2
2 1 1 1 0 -1 -2 -3 -6 -1 12 31 25 9 -1 12 43 78 106 114 89 59 30 7 -1 -2 -0 0 -0 1 4 8 12 12 11 8 8 7 5 3 1 0 1 1 1 1 1 0 0 0 0 0 -0 -0 -0 -1 -0 -0 0 0 -0 -0 -1 -1 -1 -2 -2 -2 -2
2 2 1 1 1 0 -1 -3 -7 -3 7 24 20 6 1 20 62 88 90 60 30 8 -4 -7 -5 -3 -2 -2 0 3 5 5 10 12 12 10 7 4 2 -0 -1 -1 0 1 1 1 0 0 -0 -0 -0 -0 -0 -1 -1 -1 -1 -1 -0 0 -0 -1 -1 -1 -1 -2 -2 -2 -2
2 1 1 1 0 0 -1 -3 -7 -7 -4 0 -5 -5 6 36 62 58 35 3 -3 -5 -4 -4 -4 -4 -2 -2 1 2 3 3 7 9 10 8 4 2 1 -0 -1 -1 -0 1 1 1 0 -0 -1 -1 -1 -1 -1 -1 -1 -1 -1 -1 -1 -0 -0 -1 -2 -2 -2 -2 -2 -3 -2
1 1 1 1 0 -1 -2 -5 -8 -10 -10 -8 -4 9 28 53 45 21 -3 -9 -6 -3 -3 -4 -3 -1 1 2 2 2 2 3 4 5 5 4 2 1 0 -0 -1 -0 -0 1 1 1 0 -0 -1 -2 -2 -1 -1 -1 -0 -0 -0 -0 -0 -0 -0 -1 -3 -3 -2 -2 -2 -3 -2
1 1 1 1 -0 -2 -4 -8 -10 -9 -4 7 26 49 67 69 29 2 -11 -7 -6 -6 -6 -7 -3 1 4 5 4 3 2 1 0 0 0 0 -0 -0 -0 -0 -0 -0 -0 -0 0 0 -0 -1 -2 -2 -2 -2 -1 -1 -0 0 1 0 -0 -1 -1 -1 -2 -4 -3 -2 -2 -2 -2
Height
5728 5729 5730 5731 5732 5733 5734 5735 5737 5738 5739 5740 5742 5743 5743 5744 5745 5746 5747 5747 5748 5748 5748 5749 5749 5749 5750 5750 5750 5750 5751 5751 5751 5751 5751 5750 5750 5749 5749 5748 5748 5747 5746 5746 5745 5744 5743 5743 5742 5741 5740 5739 5738 5737 5736 5734 5733 5732 5730 5729 5728 5726 5725 5723 5723 5721 5719 5718 5717
5728 5728 5729 5731 5732 5733 5734 5735 5736 5737 5738 5739 5741 5742 5743 5743 5744 5745 5745 5746 5746 5747 5747 5747 5748 5748 5748 5748 5749 5749 5749 5749 5749 5749 5749 5748 5748 5748 5747 5746 5746 5745 5744 5744 5743 5742 5741 5741 5740 5739 5738 5737 5736 5734 5733 5732 5731 5729 5728 5727 5725 5724 5722 5721 5720 5719 5717 5715 5714
5727 5728 5729 5730 5731 5732 5733 5735 5736 5737 5738 5739 5740 5741 5741 5742 5743 5743 5744 5744 5745 5745 5746 5746 5746 5746 5747 5747 5747 5747 5748 5748 5748 5747 5747 5747 5746 5746 5745 5744 5744 5743 5742 5742 5741 5740 5739 5738 5737 5736 5735 5734 5733 5732 5730 5729 5728 5727 5725 5724 5723 5721 5720 5718 5717 5716 5714 5713 5711
5727 5728 5729 5730 5731 5732 5733 5734 5735 5736 5737 5738 5738 5739 5740 5741 5742 5742 5743 5743 5743 5744 5744 5744 5745 5745 5745 5745 5746 5746 5746 5746 5746 5745 5745 5745 5744 5744 5743 5742 5742 5741 5740 5739 5738 5738 5737 5735 5734 5733 5732 5731 5730 5728 5727 5726 5725 5723 5722 5721 5720 5718 5717 5716 5714 5713 5712 5710 5708
5726 5727 5728 5729 5730 5731 5732 5733 5734 5735 5736 5737 5738 5738 5739 5740 5740 5741 5741 5742 5742 5742 5743 5743 5743 5743 5744 5744 5744 5744 5744 5744 5744 5743 5743 5743 5742 5742 5741 5740 5739 5738 5738 5737 5736 5735 5734 5733 5731 5730 5729 5728 5727 5725 5724 5723 5722 5720 5719 5718 5717 5716 5714 5713 5712 5710 5709 5707 5706
5726 5727 5728 5728 5729 5730 5731 5732 5733 5734 5735 5736 5737 5737 5738 5738 5739 5739 5740 5740 5741 5741 5741 5741 5742 5742 5742 5742 5743 5743 5743 5743 5742 5742 5741 5741 5740 5739 5738 5738 5737 5736 5735 5734 5733 5732 5731 5729 5728 5727 5726 5725 5724 5723 5722 5720 5719 5717 5716 5715 5714 5713 5712 5710 5708 5707 5706 5704 5703
5725 5726 5727 5728 5728 5729 5730 5731 5732 5733 5733 5734 5735 5736 5737 5737 5738 5738 5738 5739 5739 5739 5740 5740 5740 5741 5741 5741 5741 5741 5741 5741 5740 5740 5739 5738 5738 5737 5736 5735 5734 5734 5733 5732 5731 5729 5728 5727 5725 5724 5723 5722 5721 5720 5719 5718 5716 5714 5713 5712 5711 5710 5708 5706 5705 5703 5702 5701 5699
5724 5725 5726 5727 5727 5728 5729 5730 5731 5732 5733 5733 5734 5735 5735 5736 5736 5737 5737 5737 5738 5738 5738 5738 5739 5739 5739 5739 5739 5739 5739 5739 5738 5738 5737 5736 5735 5735 5734 5733 5732 5731 5730 5729 5728 5727 5725 5724 5723 5722 5721 5719 5718 5717 5715 5714 5713 5712 5710 5709 5707 5706 5705 5703 5703 5701 5699 5698 5697
5723 5724 5725 5725 5726 5727 5728 5728 5729 5730 5731 5732 5733 5733 5734 5734 5735 5735 5736 5736 5736 5736 5737 5737 5737 5738 5738 5738 5738 5738 5737 5737 5736 5736 5735 5734 5733 5732 5732 5731 5730 5729 5728 5727 5726 5724 5723 5722 5721 5719 5718 5717 5715 5713 5713 5711 5710 5708 5707 5706 5704 5704 5703 5702 5701 5699 5697 5695 5693
5723 5723 5724 5724 5725 5726 5727 5728 5728 5729 5730 5731 5731 5732 5733 5733 5733 5734 5734 5734 5734 5735 5735 5735 5736 5736 5736 5736 5736 5735 5735 5734 5734 5733 5733 5732 5731 5730 5729 5728 5728 5727 5726 5724 5724 5722 5721 5719 5718 5717 5716 5714 5713 5711 5709 5708 5707 5705 5703 5702 5701 5701 5700 5700 5698 5696 5693 5692 5691
5721 5722 5723 5723 5724 5724 5725 5726 5727 5728 5729 5729 5730 5731 5731 5732 5732 5733 5733 5733 5733 5733 5733 5733 5734 5734 5734 5734 5733 5733 5733 5732 5731 5731 5730 5729 5728 5728 5727 5726 5725 5724 5723 5722 5721 5720 5718 5717 5716 5715 5713 5712 5710 5708 5706 5705 5704 5703 5701 5700 5699 5698 5697 5695 5693 5692 5690 5689 5687
5720 5721 5721 5722 5723 5723 5724 5725 5726 5727 5727 5728 5729 5729 5730 5730 5731 5731 5731 5731 5732 5732 5732 5732 5732 5732 5732 5731 5731 5730 5730 5729 5729 5728 5727 5727 5726 5725 5724 5724 5723 5722 5721 5720 5719 5718 5716 5715 5714 5712 5711 5709 5708 5706 5704 5703 5701 5700 5698 5697 5696 5695 5693 5692 5690 5688 5687 5686 5684
5719 5719 5720 5721 5721 5722 5723 5723 5724 5725 5726 5727 5728 5728 5728 5729 5729 5729 5730 5730 5730 5730 5730 5730 5730 5730 5729 5729 5728 5728 5728 5727 5726 5726 5725 5724 5723 5723 5722 5721 5720 5719 5718 5717 5716 5715 5714 5712 5711 5709 5708 5706 5705 5703 5702 5700 5698 5697 5696 5695 5693 5692 5691 5689 5687 5685 5683 5682 5681
5718 5718 5719 5719 5720 5721 5721 5722 5723 5724 5725 5726 5726 5727 5727 5727 5728 5728 5728 5728 5728 5728 5728 5728 5728 5727 5727 5727 5726 5726 5725 5724 5724 5723 5722 5722 5721 5720 5719 5719 5718 5717 5716 5715 5713 5712 5711 5709 5708 5706 5705 5703 5702 5700 5699 5697 5696 5695 5693 5692 5690 5689 5688 5686 5684 5682 5680 5679 5678
5716 5717 5718 5718 5719 5719 5720 5721 5722 5723 5723 5724 5724 5725 5725 5726 5726 5726 5726 5726 5726 5726 5726 5726 5725 5725 5724 5724 5723 5723 5722 5722 5721 5721 5720 5719 5718 5718 5717 5716 5715 5714 5713 5712 5710 5709 5708 5706 5704 5703 5701 5700 5698 5697 5696 5694 5693 5692 5690 5688 5687 5685 5684 5683 5680 5678 5677 5676 5674
5715 5716 5717 5717 5718 5718 5719 5720 5721 5721 5722 5722 5723 5723 5723 5724 5724 5724 5724 5724 5724 5724 5723 5723 5723 5722 5722 5721 5721 5720 5720 5719 5718 5718 5718 5717 5716 5715 5714 5713 5712 5711 5710 5708 5707 5706 5704 5703 5701 5700 5698 5697 5695 5694 5693 5691 5689 5688 5687 5685 5684 5682 5680 5678 5677 5675 5673 5672 5671
5714 5715 5715 5716 5717 5718 5718 5719 5719 5720 5720 5721 5721 5721 5722 5722 5722 5722 5722 5722 5722 5721 5721 5721 5720 5720 5719 5718 5718 5718 5717 5717 5716 5715 5715 5714 5713 5713 5711 5710 5709 5708 5707 5705 5704 5703 5701 5700 5698 5697 5695 5693 5692 5691 5689 5688 5686 5685 5683 5682 5680 5678 5676 5675 5673 5672 5670 5668 5667
5713 5714 5714 5715 5716 5716 5717 5717 5718 5718 5718 5719 5719 5719 5719 5719 5720 5720 5719 5719 5719 5719 5718 5718 5718 5717 5717 5716 5716 5715 5715 5714 5713 5713 5712 5712 5711 5710 5708 5708 5706 5705 5704 5702 5701 5699 5698 5697 5695 5693 5692 5691 5689 5688 5686 5684 5683 5681 5680 5678 5677 5675 5673 5671 5670 5668 5667 5665 5663
5712 5713 5713 5714 5714 5715 5715 5716 5716 5716 5717 5717 5717 5717 5717 5717 5717 5717 5717 5717 5716 5716 5716 5715 5715 5715 5714 5714 5713 5713 5713 5712 5711 5710 5710 5709 5708 5707 5706 5704 5703 5702 5701 5699 5698 5696 5695 5693 5692 5691 5689 5687 5686 5684 5683 5681 5679 5678 5676 5674 5673 5671 5670 5668 5666 5664 5663 5661 5660
5710 5711 5712 5713 5713 5713 5714 5714 5714 5714 5714 5714 5714 5715 5715 5715 5715 5715 5714 5714 5714 5713 5713 5713 5713 5713 5712 5712 5711 5711 5710 5710 5709 5708 5707 5706 5705 5704 5703 5702 5700 5699 5698 5697 5695 5693 5692 5690 5689 5687 5686 5684 5683 5681 5679 5678 5676 5674 5673 5671 5669 5668 5666 5664 5663 5661 5659 5658 5657
5709 5709 5710 5711 5711 5712 5712 5712 5712 5712 5712 5712 5712 5713 5713 5713 5713 5712 5712 5712 5711 5711 5711 5711 5711 5710 5710 5710 5709 5709 5708 5707 5706 5705 5704 5703 5702 5701 5700 5698 5697 5696 5695 5693 5692 5691 5689 5687 5685 5684 5682 5681 5679 5678 5676 5674 5673 5671 5669 5668 5666 5664 5663 5661 5659 5657 5656 5654 5653
5707 5708 5708 5709 5709 5709 5709 5709 5709 5709 5709 5709 5710 5710 5710 5710 5710 5710 5709 5709 5708 5708 5708 5708 5708 5708 5708 5708 5707 5707 5706 5705 5704 5703 5701 5700 5699 5698 5697 5696 5694 5693 5692 5691 5689 5687 5686 5684 5682 5681 5679 5677 5675 5674 5673 5671 5669 5667 5666 5664 5662 5660 5659 5657 5655 5654 5652 5650 5649
5705 5706 5706 5706 5707 5707 5707 5707 5707 5707 5707 5708 5708 5708 5708 5708 5707 5707 5707 5706 5706 5706 5706 5706 5706 5706 5705 5705 5705 5704 5703 5702 5701 5700 5698 5697 5696 5695 5694 5693 5692 5690 5689 5688 5686 5684 5682 5680 5679 5677 5676 5674 5672 5670 5669 5668 5666 5664 5663 5661 5659 5657 5655 5653 5652 5650 5649 5647 5646
5703 5703 5704 5704 5704 5704 5704 5704 5704 5704 5705 5705 5706 5705 5705 5705 5704 5704 5704 5704 5704 5704 5703 5703 5703 5703 5703 5703 5703 5702 5700 5699 5698 5697 5695 5694 5693 5691 5690 5689 5688 5687 5686 5684 5682 5680 5679 5677 5675 5673 5672 5670 5668 5667 5665 5664 5663 5661 5659 5657 5655 5654 5652 5650 5649 5647 5646 5644 5642
5701 5701 5701 5702 5702 5702 5702 5702 5702 5703 5703 5703 5703 5703 5702 5702 5702 5702 5702 5702 5702 5701 5701 5701 5701 5701 5701 5701 5700 5699 5698 5696 5695 5694 5692 5691 5689 5688 5687 5686 5685 5683 5682 5681 5679 5677 5675 5673 5671 5669 5668 5666 5665 5663 5662 5660 5658 5657 5655 5654 5652 5650 5648 5647 5645 5643 5642 5640 5638
5699 5699 5699 5700 5700 5700 5700 5700 5700 5700 5701 5701 5700 5700 5699 5699 5699 5699 5700 5699 5699 5698 5698 5698 5698 5698 5698 5698 5697 5695 5694 5693 5692 5691 5689 5688 5686 5684 5683 5682 5681 5679 5678 5677 5675 5673 5671 5669 5667 5666 5664 5663 5661 5660 5658 5657 5655 5653 5652 5650 5648 5647 5645 5643 5642 5640 5638 5637 5635
5698 5698 5698 5698 5698 5699 5699 5699 5699 5699 5698 5698 5698 5697 5697 5697 5697 5697 5697 5697 5696 5695 5695 5696 5696 5695 5695 5694 5693 5692 5691 5689 5688 5687 5685 5683 5682 5680 5678 5678 5677 5675 5674 5672 5670 5668 5667 5665 5663 5662 5661 5659 5658 5656 5654 5653 5651 5649 5648 5646 5644 5643 5641 5640 5638 5636 5635 5633 5631
5696 5696 5697 5697 5697 5698 5698 5698 5697 5697 5697 5696 5696 5695 5695 5694 5694 5693 5693 5693 5692 5692 5692 5692 5692 5691 5690 5690 5689 5688 5687 5686 5685 5683 5681 5678 5675 5674 5673 5673 5672 5670 5669 5668 5666 5664 5663 5661 5660 5658 5657 5655 5653 5652 5650 5648 5647 5645 5643 5643 5641 5639 5638 5636 5634 5633 5631 5629 5628
5694 5695 5695 5696 5696 5696 5696 5696 5696 5695 5695 5694 5693 5693 5693 5692 5691 5690 5689 5689 5689 5688 5688 5688 5688 5687 5686 5686 5685 5684 5683 5682 5681 5679 5678 5680 5685 5687 5681 5673 5668 5666 5665 5663 5662 5660 5658 5657 5656 5655 5653 5652 5650 5648 5646 5644 5643 5642 5640 5639 5638 5636 5634 5632 5631 5629 5627 5625 5623
5691 5692 5693 5693 5693 5694 5694 5694 5693 5693 5692 5692 5691 5691 5690 5689 5688 5687 5685 5685 5684 5684 5683 5683 5683 5682 5682 5682 5681 5681 5680 5679 5678 5676 5675 5675 5676 5677 5676 5671 5666 5663 5661 5660 5658 5657 5655 5654 5653 5651 5649 5648 5646 5644 5642 5641 5639 5638 5637 5635 5633 5632 5630 5628 5627 5625 5623 5622 5620
5688 5689 5690 5691 5691 5691 5692 5691 5691 5690 5689 5689 5689 5688 5687 5687 5686 5684 5683 5681 5679 5677 5676 5676 5677 5677 5677 5678 5678 5677 5676 5675 5674 5673 5671 5670 5669 5668 5667 5664 5662 5660 5658 5657 5654 5653 5652 5651 5649 5647 5645 5644 5642 5640 5638 5637 5636 5634 5633 5631 5629 5628 5626 5624 5623 5621 5619 5618 5616
5686 5687 5688 5689 5689 5689 5689 5689 5688 5688 5687 5687 5686 5686 5685 5684 5683 5682 5680 5677 5673 5670 5669 5669 5669 5670 5672 5673 5673 5673 5672 5671 5670 5668 5667 5665 5663 5662 5660 5659 5658 5656 5654 5653 5651 5650 5649 5647 5645 5643 5642 5640 5638 5637 5635 5634 5632 5631 5629 5627 5626 5624 5622 5620 5619 5617 5615 5614 5612
5684 5685 5686 5687 5687 5687 5687 5686 5686 5686 5685 5684 5684 5683 5682 5681 5680 5678 5677 5674 5671 5669 5672 5675 5672 5667 5666 5668 5669 5669 5668 5668 5666 5665 5663 5661 5660 5658 5656 5655 5654 5653 5651 5649 5648 5646 5645 5643 5642 5640 5638 5636 5634 5633 5632 5630 5628 5627 5625 5623 5622 5620 5618 5617 5615 5613 5612 5610 5608
5683 5683 5683 5683 5684 5684 5684 5684 5684 5683 5683 5682 5681 5680 5679 5678 5676 5675 5674 5673 5673 5675 5680 5684 5677 5668 5662 5663 5664 5665 5664 5663 5663 5661 5660 5658 5656 5654 5653 5651 5650 5649 5648 5646 5644 5643 5641 5639 5638 5636 5634 5633 5631 5629 5628 5626 5624 5623 5621 5619 5618 5616 5614 5613 5611 5609 5608 5606 5604
5680 5680 5680 5680 5680 5681 5681 5682 5681 5681 5680 5678 5678 5677 5677 5676 5675 5675 5676 5677 5678 5680 5682 5681 5673 5665 5662 5661 5661 5661 5661 5660 5659 5657 5655 5653 5652 5650 5649 5648 5646 5645 5644 5643 5640 5639 5637 5635 5634 5632 5630 5629 5627 5626 5624 5623 5621 5619 5618 5616 5614 5612 5611 5609 5607 5605 5604 5602 5600
5678 5678 5678 5678 5678 5678 5678 5679 5678 5678 5677 5676 5677 5675 5674 5673 5674 5677 5679 5679 5678 5677 5675 5670 5665 5661 5660 5659 5658 5658 5657 5657 5655 5653 5651 5649 5648 5646 5645 5644 5643 5642 5640 5638 5637 5635 5633 5631 5630 5628 5627 5625 5623 5622 5620 5619 5617 5616 5614 5612 5610 5609 5607 5605 5603 5601 5599 5598 5596
5675 5676 5676 5676 5676 5676 5676 5676 5676 5675 5674 5675 5676 5674 5672 5672 5674 5675 5674 5673 5669 5665 5662 5661 5660 5659 5658 5657 5656 5655 5654 5653 5652 5649 5647 5645 5644 5643 5642 5641 5639 5638 5636 5634 5633 5631 5629 5628 5626 5624 5623 5622 5620 5618 5617 5615 5613 5612 5610 5609 5607 5605 5603 5601 5599 5597 5595 5593 5592
5673 5673 5673 5673 5673 5673 5673 5673 5673 5672 5671 5672 5672 5671 5670 5671 5672 5672 5668 5663 5661 5660 5659 5659 5658 5657 5656 5655 5654 5653 5651 5650 5648 5646 5644 5642 5641 5640 5639 5638 5636 5634 5633 5631 5629 5628 5626 5624 5623 5621 5619 5618 5616 5615 5613 5611 5610 5608 5607 5605 5603 5601 5599 5597 5595 5593 5591 5589 5588
5671 5672 5672 5672 5672 5671 5671 5671 5670 5669 5669 5668 5668 5667 5667 5669 5668 5665 5662 5659 5659 5659 5658 5657 5656 5655 5653 5653 5651 5650 5648 5646 5644 5642 5641 5639 5638 5637 5635 5634 5632 5631 5629 5628 5626 5624 5622 5621 5619 5617 5616 5614 5613 5611 5609 5608 5606 5605 5603 5601 5599 5597 5595 5593 5591 5589 5587 5585 5583
5669 5670 5670 5670 5669 5669 5668 5668 5667 5666 5666 5664 5663 5663 5665 5665 5663 5659 5658 5659 5658 5657 5656 5655 5654 5652 5650 5649 5648 5646 5644 5642 5640 5639 5638 5637 5635 5633 5632 5630 5629 5627 5626 5624 5623 5621 5619 5617 5615 5614 5612 5611 5609 5607 5606 5604 5603 5601 5599 5597 5595 5593 5591 5589 5587 5585 5583 5581 5579
5667 5668 5668 5667 5667 5666 5665 5664 5664 5663 5661 5660 5660 5662 5663 5662 5656 5656 5657 5657 5656 5654 5653 5652 5651 5649 5647 5645 5643 5642 5640 5638 5636 5635 5634 5633 5631 5629 5628 5627 5625 5623 5622 5620 5619 5617 5615 5613 5612 5610 5608 5607 5605 5603 5602 5601 5599 5597 5595 5593 5591 5589 5587 5585 5583 5581 5579 5577 5575